[[{"header":{"parameterUnit":"m.s-1","parameterCategory":1,"la1":30.2991,"la2":30.254,"lo1":-89.0895,"lo2":-89.0444,"dy":0.0017,"dx":0.0017,"nx":28,"ny":28,"refTime":"2025-02-09T03:00:00:Z","depth":0,"parameterNumber":2,"parameterNumberName":"U-component_of_WINDS"},"data":[0,0,0,0,0,0,0,0,0,0,0,0,0,0,0,0,0,0,0,0,0,0,0,0,0,0,0,0,0,0,0,0,0,0,0,0,0,0,0,0,0,0,0,0,0,0,0,0,0,0,0,0,0,0,0,0,0,0,0.6881,0.6882,0,0.6951,0.6952,0.6953,0.6944,0.6943,0.6942,0.6941,0.7017,0.7021,0.7024,0,0,0,0,0,0,0,0,0,0,0,0,0,0.6746,0.6748,0.6881,0.6882,0.6883,0.6951,0.6952,0.6953,0.6944,0.6943,0.6942,0.694,0.7016,0.702,0.7024,0,0,0,0,0,0,0,0,0,0,0,0,0,0.6809,0.6749,0.6881,0.6887,0.6888,0.6951,0.6952,0.6953,0.6945,0.6943,0.6941,0.694,0.7015,0.702,0.7024,0.7088,0,0,0.7039,0.7041,0,0,0,0,0,0,0,0,0.6806,0.6814,0.6885,0.6887,0.6888,0.6937,0.6932,0.6998,0.6945,0.6923,0.6941,0.6939,0.6992,0.6999,0.7016,0.7091,0.7094,0.7039,0.7042,0.7044,0.7045,0,0,0,0,0,0,0,0.6801,0.6811,0.6909,0.6886,0.6888,0.6888,0.6895,0.6945,0.6967,0.6925,0.6925,0.6933,0.6993,0.7011,0.7018,0.7096,0.7039,0.7043,0.7046,0.7048,0.7228,0.723,0,0,0,0,0,0,0.6795,0.6808,0.6907,0.6911,0.6842,0.6891,0.6899,0.6923,0.6966,0.6971,0.6934,0.6932,0.7004,0.7012,0.702,0.7098,0.7044,0.7048,0.7051,0.7226,0.7228,0.723,0,0,0,0,0,0,0.6792,0.6804,0.6904,0.6859,0.6872,0.6896,0.6922,0.6925,0.6944,0.6973,0.6977,0.6949,0.7003,0.7014,0.7071,0.7101,0.705,0.7055,0.7223,0.7227,0.7229,0.7254,0,0,0,0,0,0,0.6788,0.6803,0.6826,0.686,0.6874,0.6952,0.6924,0.6928,0.6951,0.6949,0.6988,0.6993,0.7003,0.7064,0.7075,0.7106,0.7058,0.7221,0.7225,0.7228,0.725,0.7257,0.7263,0,0,0,0,0,0.6783,0.6831,0.6827,0.6839,0.6903,0.6954,0.6962,0.6971,0.6954,0.6978,0.6997,0.6991,0.7095,0.707,0.7083,0.7115,0.7219,0.7224,0.7228,0.7248,0.7256,0.7263,0,0,0,0,0,0,0.6801,0.6835,0.6831,0.6891,0.6919,0.6952,0.6983,0.698,0.7015,0.7012,0.7023,0.7032,0.709,0.7108,0.7079,0.718,0.7155,0.7162,0.7166,0.7174,0.718,0.7175,0.7062,0,0,0,0,0,0.6811,0.6848,0.6876,0.6926,0.694,0.6959,0.6981,0.6986,0.7017,0.7029,0.7052,0.7083,0.7123,0.7149,0.7187,0.7253,0.7262,0.7282,0.7288,0.7293,0.73,0.7337,0.7346,0.7245,0.7245,0.7245,0,0,0.6834,0.6858,0.688,0.693,0.6953,0.6992,0.6969,0.7012,0.7041,0.7036,0.7091,0.7109,0.7145,0.7207,0.7235,0.7224,0.7329,0.7299,0.7302,0.7306,0.7342,0.7352,0.7361,0.7248,0.7247,0.7247,0,0,0.6896,0.6916,0.6961,0.6983,0.7017,0.7029,0.704,0.7073,0.7085,0.714,0.7137,0.7173,0.7241,0.7267,0.7289,0.7361,0.7358,0.7373,0.7407,0.7443,0.7451,0.7458,0.7485,0.7495,0.7379,0.7379,0.7379,0,0.6921,0.6978,0.6984,0.7027,0.705,0.7045,0.7091,0.7114,0.7159,0.7176,0.7162,0.7247,0.7271,0.7339,0.7357,0.7374,0.7388,0.7369,0.7449,0.7456,0.7463,0.7489,0.7499,0.7381,0.7381,0.7381,0.7381,0,0.7007,0.7047,0.7079,0.7121,0.7148,0.7192,0.7207,0.7233,0.7236,0.725,0.7307,0.7335,0.7379,0.7396,0.7399,0.7465,0.7457,0.7446,0.7422,0.7474,0.7499,0.7509,0.7384,0.7383,0.7382,0.7382,0,0,0.7083,0.7127,0.7139,0.7159,0.7196,0.7228,0.7272,0.7314,0.7337,0.7369,0.7408,0.7465,0.7455,0.748,0.7486,0.7518,0.7575,0.7503,0.7504,0.7517,0.7651,0.766,0.7672,0.7572,0.7574,0.7576,0.7649,0,0.7149,0.7226,0.7233,0.7303,0.7341,0.7337,0.7376,0.7404,0.7419,0.7455,0.7471,0.7512,0.7495,0.7511,0.7541,0.7561,0.7602,0.7556,0.7611,0.7613,0.7603,0.7684,0.7694,0.7761,0.7658,0.766,0.7661,0,0.7236,0.7269,0.7342,0.7375,0.7391,0.7426,0.7465,0.7498,0.7531,0.7539,0.7567,0.7569,0.7617,0.759,0.7658,0.7626,0.7649,0.7662,0.7665,0.7672,0.7641,0.7694,0.7783,0.7793,0.7676,0.7675,0.7674,0,0.7285,0.7348,0.74,0.7417,0.7455,0.748,0.7498,0.7528,0.7553,0.7588,0.7605,0.7645,0.7668,0.77,0.7714,0.7693,0.7781,0.7755,0.7791,0.7791,0.7811,0.781,0.7906,0.7824,0.7824,0.7823,0.7823,0,0.7359,0.7405,0.7423,0.7455,0.7506,0.7515,0.7566,0.7583,0.761,0.7647,0.7646,0.7681,0.7697,0.7735,0.7746,0.7801,0.7811,0.782,0.7823,0.7821,0.782,0.7837,0.7833,0.7826,0.7826,0.7825,0.7825,0,0.7423,0.7437,0.7494,0.7525,0.7535,0.7571,0.7599,0.7631,0.7645,0.7692,0.7704,0.7726,0.7771,0.7787,0.7842,0.785,0.7914,0.7912,0.7902,0.7903,0.7939,0.7936,0.805,0.8066,0.7973,0.7974,0.7974,0,0.747,0.7504,0.754,0.7563,0.7582,0.762,0.7645,0.7656,0.7682,0.7722,0.775,0.7794,0.783,0.7902,0.7924,0.7966,0.7967,0.8004,0.7973,0.797,0.7969,0.7967,0.7971,0.801,0.8011,0.8012,0.8012,0,0.7551,0.7557,0.7592,0.763,0.766,0.769,0.772,0.7741,0.7756,0.7786,0.7831,0.7859,0.7914,0.7958,0.8002,0.8022,0.8021,0.8021,0.8032,0.8031,0.8025,0.803,0.7919,0.8019,0.8018,0.8018,0.8018,0.8017,0.7609,0.764,0.767,0.771,0.7733,0.7761,0.7793,0.7811,0.7848,0.7892,0.7897,0.7946,0.7979,0.8036,0.8058,0.8098,0.8088,0.8104,0.8108,0.8112,0.8115,0.8017,0.8106,0.8106,0.8106,0.8105,0.8105,0,0.7692,0.771,0.7747,0.7788,0.782,0.7814,0.7847,0.7875,0.7917,0.7947,0.7982,0.8034,0.8077,0.8103,0.8147,0.8174,0.8174,0.8185,0.8184,0.8189,0.8121,0.8107,0.8184,0.8184,0.8184,0.8184,0.8184,0.8184,0.7738,0.7791,0.7799,0.7864,0.7883,0.793,0.7949,0.7976,0.8,0.8058,0.8093,0.8109,0.8138,0.8184,0.8224,0.8231,0.8248,0.8259,0.8265,0.8202,0.8193,0.8186,0.8173,0.8263,0.8263,0.833,0.8331,0.8332]},{"header":{"parameterUnit":"m.s-1","parameterCategory":1,"la1":30.2991,"la2":30.254,"lo1":-89.0895,"lo2":-89.0444,"dy":0.0017,"dx":0.0017,"nx":28,"ny":28,"refTime":"2025-02-09T03:00:00:Z","depth":0,"parameterNumber":3,"parameterNumberName":"V-component_of_WINDS"},"data":[0,0,0,0,0,0,0,0,0,0,0,0,0,0,0,0,0,0,0,0,0,0,0,0,0,0,0,0,0,0,0,0,0,0,0,0,0,0,0,0,0,0,0,0,0,0,0,0,0,0,0,0,0,0,0,0,0,0,3.3204,3.3207,0,3.349,3.3493,3.3496,3.3585,3.3583,3.3582,3.358,3.3875,3.3884,3.3893,0,0,0,0,0,0,0,0,0,0,0,0,0,3.2739,3.2747,3.3204,3.3208,3.3211,3.3489,3.3493,3.3497,3.3585,3.3583,3.3581,3.358,3.3872,3.3883,3.3894,0,0,0,0,0,0,0,0,0,0,0,0,0,3.2975,3.275,3.3203,3.3288,3.3299,3.3489,3.3493,3.3498,3.3585,3.3583,3.3581,3.3579,3.3868,3.3882,3.3895,3.4022,0,0,3.3937,3.3943,0,0,0,0,0,0,0,0,3.2961,3.2992,3.3272,3.3283,3.3295,3.3499,3.3438,3.3674,3.3586,3.3477,3.358,3.3578,3.3752,3.3775,3.3833,3.4036,3.4048,3.3938,3.3947,3.3953,3.3956,0,0,0,0,0,0,0,3.2945,3.298,3.3317,3.3276,3.329,3.3314,3.3345,3.3483,3.3623,3.3486,3.3493,3.3525,3.3758,3.382,3.3841,3.4053,3.3938,3.395,3.3959,3.3964,3.4378,3.438,0,0,0,0,0,0,3.2914,3.2966,3.3308,3.3326,3.3119,3.3324,3.3359,3.3436,3.3621,3.3647,3.3527,3.3528,3.3797,3.3825,3.3851,3.4016,3.3952,3.3965,3.3973,3.4375,3.4378,3.4381,0,0,0,0,0,0,3.2903,3.2943,3.3297,3.3148,3.3195,3.3334,3.342,3.3443,3.3505,3.3652,3.3678,3.3565,3.3797,3.3832,3.398,3.4027,3.3972,3.3984,3.4372,3.4376,3.438,3.4341,0,0,0,0,0,0,3.289,3.2939,3.2987,3.3148,3.3202,3.3419,3.3423,3.345,3.3528,3.3533,3.3694,3.3719,3.3798,3.3959,3.3993,3.4045,3.3995,3.4368,3.4374,3.4379,3.4339,3.4344,3.4348,0,0,0,0,0,3.2873,3.2965,3.2989,3.303,3.3265,3.3421,3.3452,3.354,3.3531,3.3582,3.3678,3.3714,3.4015,3.3973,3.4013,3.4069,3.4366,3.4372,3.4378,3.4337,3.4343,3.4347,0,0,0,0,0,0,3.2806,3.2987,3.3016,3.3163,3.3276,3.3436,3.3502,3.3543,3.3661,3.3661,3.3766,3.3802,3.3942,3.402,3.397,3.4203,3.4192,3.4207,3.4147,3.4154,3.4158,3.4138,3.4006,0,0,0,0,0,3.2808,3.2918,3.3071,3.3186,3.3241,3.3361,3.3433,3.3491,3.3613,3.3661,3.3767,3.3884,3.4006,3.4084,3.4204,3.435,3.4389,3.4409,3.4413,3.4415,3.4428,3.4515,3.4527,3.4402,3.4402,3.4402,0,0,3.2814,3.2926,3.299,3.3175,3.3269,3.3383,3.3401,3.352,3.3606,3.3679,3.3826,3.3908,3.4046,3.4194,3.4265,3.4264,3.447,3.4423,3.4424,3.4436,3.4523,3.4534,3.4545,3.4406,3.4405,3.4405,0,0,3.2883,3.2978,3.3086,3.318,3.3323,3.3403,3.3429,3.3584,3.3641,3.3789,3.3848,3.3952,3.4158,3.4256,3.4332,3.4442,3.4481,3.4478,3.4501,3.4584,3.4594,3.4604,3.4646,3.466,3.4489,3.4488,3.4488,0,3.2873,3.3045,3.3136,3.3253,3.3335,3.3406,3.3518,3.3605,3.378,3.3835,3.3831,3.4094,3.4192,3.4366,3.4393,3.4451,3.4486,3.4461,3.4585,3.4596,3.4606,3.4647,3.4663,3.4487,3.4487,3.4488,3.4488,0,3.3028,3.3146,3.3217,3.3384,3.3473,3.3586,3.3696,3.3776,3.3827,3.3908,3.4061,3.4181,3.4328,3.4373,3.4423,3.4556,3.4551,3.4564,3.4556,3.4615,3.4656,3.4673,3.4486,3.4486,3.4487,3.4487,0,0,3.3063,3.328,3.3305,3.3383,3.3547,3.3642,3.376,3.3903,3.3971,3.409,3.4193,3.4368,3.4382,3.4469,3.4531,3.4604,3.4688,3.461,3.4615,3.4623,3.4845,3.4836,3.4853,3.4714,3.4717,3.472,3.4835,0,3.3156,3.3369,3.3455,3.3628,3.3742,3.3812,3.3915,3.4028,3.4107,3.4216,3.4304,3.4428,3.4436,3.4489,3.4564,3.4661,3.4734,3.4654,3.4814,3.4819,3.478,3.4874,3.4864,3.4967,3.4851,3.4854,3.4856,0,3.3293,3.3413,3.3597,3.375,3.3801,3.3892,3.4033,3.4135,3.4265,3.4319,3.4416,3.4475,3.4604,3.4586,3.4767,3.471,3.4781,3.4839,3.4845,3.4866,3.4843,3.49,3.5001,3.5018,3.4882,3.488,3.4878,0,3.3305,3.3512,3.365,3.3715,3.3896,3.3959,3.4037,3.4166,3.4248,3.4371,3.4426,3.4562,3.4637,3.4742,3.4838,3.4815,3.5011,3.5,3.5062,3.5059,3.5101,3.5098,3.5218,3.5142,3.5141,3.5141,3.5141,0,3.3401,3.3512,3.3659,3.3744,3.3871,3.397,3.4094,3.4178,3.4292,3.4397,3.4465,3.4562,3.468,3.4793,3.4868,3.5009,3.5042,3.509,3.511,3.5086,3.508,3.5136,3.5132,3.5145,3.5144,3.5144,3.5143,0,3.3436,3.3538,3.3694,3.3853,3.3896,3.3983,3.412,3.4207,3.429,3.4422,3.4459,3.4589,3.4726,3.4831,3.5008,3.5059,3.521,3.5228,3.5165,3.5176,3.5233,3.5227,3.5396,3.5424,3.5325,3.5326,3.5326,0,3.3492,3.3579,3.3748,3.3823,3.3901,3.402,3.4104,3.4206,3.4291,3.4448,3.4517,3.4658,3.4777,3.4993,3.5105,3.5242,3.5267,3.5316,3.5288,3.5263,3.5272,3.5267,3.5278,3.532,3.5321,3.5321,3.5322,0,3.3582,3.3629,3.3747,3.3884,3.3983,3.4096,3.421,3.4268,3.4391,3.4484,3.4624,3.4716,3.4899,3.504,3.5189,3.5272,3.5319,3.533,3.5352,3.533,3.5292,3.5317,3.5179,3.5326,3.5326,3.5325,3.5325,3.5325,3.3633,3.3715,3.3847,3.3977,3.4074,3.418,3.427,3.4365,3.4484,3.464,3.4693,3.4839,3.497,3.5175,3.526,3.5377,3.5379,3.541,3.5419,3.5425,3.5425,3.527,3.5404,3.5404,3.5404,3.5404,3.5404,0,3.3729,3.3818,3.3936,3.4095,3.4198,3.4232,3.4361,3.4446,3.4574,3.4692,3.4808,3.4971,3.5109,3.5232,3.5376,3.5447,3.5472,3.5482,3.5479,3.5498,3.5414,3.5382,3.5459,3.5459,3.5459,3.5459,3.5459,3.5459,3.3791,3.3933,3.3996,3.4188,3.4277,3.442,3.4491,3.459,3.4686,3.4865,3.498,3.5059,3.5181,3.5335,3.5463,3.5496,3.5548,3.5552,3.5591,3.551,3.5503,3.5497,3.5468,3.5562,3.5562,3.5666,3.5667,3.5668]}]]